User: anonymous   Login
Location: Tauranga
(37.6860°S, 176.1670°E)
Time: 15:29:37
(UTC+13:00)
Language:

Cosmos 1733 Rocket - Orbit

View from above orbital plane
View from above orbital plane
View from above satellite
View from above satellite

Ground track
Ground track

The orbit data is extracted from the following two-line orbital elements,

1 16612U 86018B   19080.47228623  .00000052  00000-0  32707-5 0  9992
2 16612  82.5163  53.7938 0017361 188.0931 309.4359 14.84222795686722
Epoch (UTC): 21 March 2019 11:20:05
Eccentricity: 0.0017361
inclination: 82.5163°
perigee height: 604 km
apogee height: 628 km
right ascension of ascending node: 53.7938°
argument of perigee: 188.0931°
revolutions per day: 14.84222795
mean anomaly at epoch: 309.4359°
orbit number at epoch: 68672

The dashed part of the orbit path shows where the satellite is in the earth's shadow,  

DLR